www.pogodaiklimat.ru

Погода и климат >> Архив погоды >> Хорватия >> Senj


ПОГОДА в Senj

  • Прогноз погоды в Senj
  • Монитор погоды в Senj
  • Климат города

АРХИВ ПОГОДЫ в Senj

Время (UTC), дата Ветер
(напр.,м/с)
 
Видим.   Явления Облачность Т
(С)
Тd
(С)
f
(%)
Тe
(С)
Тes
(С)
Комфортность P
(гПа)
Po
(гПа)
Тmin
(С)
Tmax
(С)
R
(мм)
R24
(мм)
S
(см)
13 9.07 СВ 2 25 км 4/4 1000 м
[Cu Sc]
+30.3 +10.6 30 +30 +40 жарко 1014.1 1010.9
18 9.07 В 2 30 км 3/1 1000 м
[Cu hum Ac trans]
+28.2 +12.4 38 +30 +30 жарко 1013.5 1010.3 +31.0
19 9.07 СВ 3 30 км 5/4 1000 м
[Sc Ci sp]
+26.2 +14.6 49 +29 +29 жарко 1013.7 1010.5
20 9.07 СВ 2 30 км 5/5 1000 м
[Sc]
+25.4 +14.9 52 +28 +28 жарко 1014.2 1011.0
03 10.07 С 2 30 км 3/0
[Ci fib]
+22.0 +11.6 52 +24 +24 комфорт 1014.5 1011.2
05 10.07 В 1 30 км ясно +22.5 +12.7 54 +25 +27 комфорт 1013.9 1010.7
04 10.07 СВ 2 30 км 1/0
[Ci fib]
+21.5 +13.7 61 +24 +24 комфорт 1014.4 1011.1
06 10.07 С 2 30 км ясно +23.5 +14.1 56 +26 +30 жарко 1013.9 1010.7 +21.3
07 10.07 СЗ 1 30 км ясно +25.2 +14.8 52 +28 +37 жарко 1013.8 1010.6
08 10.07 С 2 30 км 1/1 1000 м
[Cu hum]
+25.7 +14.3 49 +28 +39 жарко 1013.6 1010.4
09 10.07 СЗ 3 30 км 1/1 1000 м
[Cu hum]
+26.8 +14.4 47 +29 +41 жарко 1013.4 1010.2
11 10.07 ЮЗ 2 30 км 1/1 1000 м
[Cu hum Ci fib]
+28.8 +14.5 42 +31 +48 жарко 1012.8 1009.6
10 10.07 С 4 30 км 1/1 1000 м
[Cu hum Ci fib]
+28.3 +12.6 38 +30 +41 жарко 1013.0 1009.8
12 10.07 ЮЗ 2 30 км 3/3 1000 м
[Cu Sc Ci sp]
+29.9 +13.8 37 +31 +44 жарко 1012.6 1009.4
13 10.07 Ю 2 30 км 3/3 1000 м
[Cu med, cong Ci sp]
+30.3 +14.1 37 +32 +43 жарко 1011.9 1008.7
18 10.07 Ю 2 25 км 9/0
[Ac und Ci sp]
+27.2 +16.4 52 +31 +31 душно 1011.3 1008.1 +31.1
20 10.07 В 1 25 км 9/0
[Ac und Ci sp]
+25.8 +12.7 44 +28 +28 жарко 1011.5 1008.3
03 11.07 В 3 25 км слабый дождь 10/10 1000 м
[Sc]
+20.1 +15.7 76 +23 +23 комфорт 1013.4 1010.1
05 11.07 В 5 30 км 10/10 1000 м
[Sc]
+21.5 +15.5 69 +25 +25 комфорт 1011.4 1008.2
04 11.07 В 7 30 км в посл. час дождь 10/10 1000 м
[Sc]
+20.6 +15.2 71 +23 +23 комфорт 1012.0 1008.7
06 11.07 В 4 25 км 10/10 1000 м
[Sc]
+22.2 +15.4 65 +26 +26 душно 1011.7 1008.5 +20.0 3
07 11.07 В 3 30 км 10/10 1000 м
[Sc]
+22.3 +15.7 66 +26 +26 жарко 1011.7 1008.5
08 11.07 СЗ 1 30 км 10/10 1000 м
[Sc]
+22.5 +16.5 69 +27 +27 душно 1012.3 1009.1
09 11.07 СЗ 3 25 км слабый дождь 10/10 1000 м
[Sc]
+22.3 +18.0 77 +27 +27 душно 1012.3 1009.1
11 11.07 СЗ 2 30 км 10/10 1000 м
[Sc]
+23.0 +17.7 72 +28 +28 душно 1012.6 1009.4
10 11.07 СВ 1 30 км в посл. час дождь 9/9 1000 м
[Sc]
+23.1 +17.1 69 +28 +30 душно 1012.4 1009.2
12 11.07 С 2 30 км 9/9 1000 м
[Sc]
+23.1 +15.1 61 +27 +29 душно 1012.1 1008.9 0.0
13 11.07 СЗ 2 30 км 9/9 1000 м
[Sc]
+23.9 +18.2 70 +28 +30 душно 1011.8 1008.6
18 11.07 С 3 15 км слабый дождь 10/10 1000 м
[Sc]
+23.6 +17.4 68 +27 +27 жарко 1013.1 1009.9 +26.3 0.2
19 11.07 ЮВ 1 20 км в посл. час дождь 10/10 1000 м
[Sc]
+21.1 +17.1 78 +25 +25 комфорт 1012.8 1009.5
20 11.07 СВ 4 25 км зарница 10/10 1000 м
[Sc]
+23.3 +17.5 70 +29 +29 душно 1012.9 1009.7
03 12.07 В 4 20 км 9/9 1000 м
[Sc]
+21.3 +16.1 72 +25 +25 комфорт 1014.2 1010.9
04 12.07 В 5 20 км 9/9 1000 м
[Sc]
+21.8 +16.2 70 +26 +26 душно 1013.8 1010.6
05 12.07 В 4 30 км 4/3 1000 м
[Cu Sc Ac trans]
+22.1 +16.7 71 +26 +27 душно 1013.9 1010.7
06 12.07 В 5 30 км 5/3 1000 м
[Cu med, cong Ac trans Ci fib]
+22.4 +16.7 70 +27 +28 душно 1014.1 1010.9 +20.9 1
08 12.07 В 4 30 км 9/9 1000 м
[Cu Sc]
+24.3 +16.8 63 +28 +29 душно 1014.4 1011.2
09 12.07 ЮВ 2 30 км 9/9 1000 м
[Cu Sc]
+26.2 +18.8 64 +31 +33 очень
душно
1014.5 1011.3
11 12.07 СЗ 2 25 км 6/3 1000 м
[Cu Sc Ac trans Ci sp]
+25.2 +17.7 63 +29 +40 душно 1014.9 1011.7
10 12.07 С 2 25 км 9/9 1000 м
[Cu Sc]
+24.5 +17.7 66 +29 +30 душно 1014.5 1011.3
12 12.07 СЗ 2 25 км 4/3 1000 м
[Cu Sc Ci sp]
+25.5 +17.8 62 +30 +42 душно 1015.0 1011.8
13 12.07 СЗ 2 25 км 5/3 1000 м
[Cu Sc Ci sp]
+26.9 +18.1 59 +32 +42 очень
душно
1014.7 1011.5
18 12.07 ЮЗ 1 30 км 4/1 1000 м
[Cu hum Ac trans Ci sp]
+26.8 +18.2 59 +31 +32 душно 1013.9 1010.7 +29.3
19 12.07 ЮЗ 1 30 км 5/3 1000 м
[Sc Ac trans]
+24.8 +18.4 68 +29 +29 душно 1013.8 1010.6
20 12.07 СВ 1 30 км 5/3 1000 м
[Sc Ac trans Ci sp]
+24.2 +17.9 68 +28 +28 душно 1014.3 1011.1
03 13.07 штиль 0 25 км 1/0
[Ci fib]
+21.3 +17.8 80 +25 +25 комфорт 1015.7 1012.4
04 13.07 штиль 0 25 км 1/1 1000 м
[Cu hum Ac trans Ci fib]
+21.0 +17.1 78 +25 +25 комфорт 1015.6 1012.3
05 13.07 штиль 0 25 км 8/8 1000 м
[Cu Sc]
+21.6 +17.1 76 +26 +26 душно 1016.1 1012.8
06 13.07 В 6 25 км 8/8 1000 м
[Cu Sc]
+24.2 +16.7 63 +28 +28 душно 1015.9 1012.7 +20.9
07 13.07 В 5 25 км 5/5 1000 м
[Cu Sc Ci fib]
+24.6 +17.0 63 +28 +30 душно 1016.2 1013.0
08 13.07 В 3 25 км 9/9 1000 м
[Cu Sc]
+26.4 +17.2 57 +30 +31 душно 1016.4 1013.2
09 13.07 В 2 25 км 9/9 1000 м
[Cu Sc]
+26.4 +16.8 56 +30 +32 душно 1016.8 1013.6
10 13.07 СЗ 2 25 км 3/3 1000 м
[Cu med, cong Ac trans]
+25.7 +19.2 67 +31 +43 очень
душно
1016.9 1013.7
11 13.07 СЗ 2 25 км 3/3 1000 м
[Cu med, cong]
+27.0 +18.2 59 +32 +45 очень
душно
1016.5 1013.3
12 13.07 З 2 25 км 1/1 1000 м
[Cu med, cong]
+28.9 +16.5 47 +32 +48 душно 1016.2 1013.0
13 13.07 СЗ 2 25 км 1/1 1000 м
[Cu med, cong]
+29.8 +16.0 43 +33 +47 душно 1016.0 1012.8
18 13.07 В 4 25 км ясно +27.7 +18.2 56 +32 +32 очень
душно
1015.7 1012.5 +30.4
20 13.07 СВ 4 30 км ясно +25.6 +17.3 60 +30 +30 душно 1016.6 1013.4
19 13.07 СВ 5 30 км ясно +25.8 +17.8 61 +30 +30 душно 1016.1 1012.9
03 14.07 В 5 30 км 1/1 1000 м
[Sc]
+23.9 +15.6 60 +27 +27 жарко 1016.5 1013.3
04 14.07 В 5 30 км 1/1 1000 м
[Sc]
+24.2 +15.3 58 +27 +27 жарко 1016.8 1013.6
05 14.07 В 5 30 км 1/1 1000 м
[Sc]
+24.6 +14.7 54 +27 +28 жарко 1016.7 1013.5
06 14.07 ЮВ 4 30 км 1/1 1000 м
[Sc]
+25.3 +15.3 54 +28 +31 жарко 1016.7 1013.5 +23.1
08 14.07 СЗ 2 30 км 1/0
[Ac trans]
+26.5 +16.4 54 +30 +41 душно 1017.0 1013.8
07 14.07 ЮВ 3 30 км ясно +27.4 +14.8 46 +30 +36 жарко 1016.8 1013.6
09 14.07 СЗ 1 30 км 1/1 1000 м
[Cu hum Ac trans]
+26.9 +15.4 49 +30 +46 душно 1017.1 1013.9
10 14.07 ЮЗ 1 30 км 1/1 1000 м
[Cu hum Ac trans]
+29.3 +15.3 43 +32 +51 опасность
солнечного
удара
1016.7 1013.5
11 14.07 ЮЗ 2 30 км 1/1 1000 м
[Cu hum Ac trans]
+30.7 +14.2 37 +33 +49 душно 1016.7 1013.5
12 14.07 ЮЗ 2 30 км 1/1 1000 м
[Cu hum]
+31.1 +14.0 35 +33 +49 душно 1016.1 1012.9
13 14.07 Ю 3 30 км 1/1 1000 м
[Cu hum]
+31.4 +13.6 34 +33 +44 жарко 1015.7 1012.5
18 14.07 З 1 30 км 1/1 1000 м
[Sc]
+30.9 +12.9 33 +32 +32 жарко 1014.3 1011.1 +31.9
19 14.07 СВ 1 30 км 3/3 1000 м
[Sc]
+27.7 +13.0 40 +29 +29 жарко 1014.1 1010.9
20 14.07 В 1 30 км 3/3 1000 м
[Sc]
+27.2 +12.5 40 +29 +29 жарко 1014.8 1011.6
03 15.07 В 6 25 км 6/0
[Ac As]
+25.2 +15.9 56 +28 +28 жарко 1012.9 1009.7
04 15.07 В 5 25 км 9/5 1000 м
[Sc Ac As]
+25.5 +15.4 54 +29 +29 душно 1013.0 1009.8
05 15.07 В 4 25 км 9/5 1000 м
[Sc Ac As]
+25.8 +16.3 56 +29 +29 душно 1012.8 1009.6
06 15.07 СЗ 3 25 км 9/9 1000 м
[Sc]
+25.4 +17.9 63 +30 +30 душно 1013.7 1010.5 +24.9
07 15.07 В 6 25 км в посл. час дождь 8/8 1000 м
[Cu Sc]
+25.4 +17.0 60 +29 +30 душно 1013.1 1009.9
08 15.07 СВ 4 25 км {дождь} 9/8 1000 м
[Cu Sc]
+26.8 +16.1 52 +30 +31 душно 1013.3 1010.1
09 15.07 В 5 25 км {дождь} 9/8 1000 м
[Cu Sc Ac trans]
+28.6 +17.2 50 +33 +34 очень
душно
1013.2 1010.0
10 15.07 СВ 5 25 км 6/4 1000 м
[Cu Sc Ac trans]
+29.7 +17.5 48 +34 +38 очень
душно
1013.2 1010.0
11 15.07 В 4 25 км 6/3 1000 м
[Cu Sc Ac trans Ci sp]
+30.3 +18.0 48 +35 +42 очень
душно
1013.4 1010.2
12 15.07 СВ 5 25 км 6/3 1000 м
[Cu med, cong Ac trans Ci sp]
+30.7 +18.0 47 +35 +40 очень
душно
1013.2 1010.1 0.2
13 15.07 В 5 25 км 8/3 1000 м
[Cu Sc Ac trans Ci sp]
+30.3 +16.2 43 +34 +37 очень
душно
1012.9 1009.7
18 15.07 В 6 30 км 1/0
[Ac lent]
+27.6 +17.4 54 +32 +32 очень
душно
1012.4 1009.2 +31.3 0.2
19 15.07 В 6 30 км 3/0
[Ci sp]
+25.8 +17.5 60 +30 +30 душно 1012.3 1009.1
20 15.07 В 7 30 км 3/0
[Ci sp]
+25.3 +17.3 61 +29 +29 душно 1012.3 1009.1
03 16.07 В 6 30 км ясно +23.5 +16.7 66 +27 +27 душно 1011.8 1008.6
04 16.07 В 5 30 км 4/1 1000 м
[Cu hum Ci fib]
+23.7 +16.3 63 +27 +27 жарко 1012.1 1008.9
06 16.07 ЮВ 1 30 км 3/1 1000 м
[Cu hum Ac trans]
+25.8 +17.2 59 +30 +33 душно 1012.4 1009.2 +23.4
07 16.07 З 1 30 км 5/1 1000 м
[Cu hum Ac und]
+25.0 +18.1 66 +29 +35 душно 1012.3 1009.1
08 16.07 Ю 2 30 км 5/3 1000 м
[Cu Sc Ac trans]
+27.3 +18.1 57 +32 +39 очень
душно
1012.5 1009.3
09 16.07 Ю 2 30 км 3/1 1000 м
[Cu hum Ac trans Ci sp]
+28.6 +18.2 53 +33 +45 очень
душно
1012.4 1009.2
10 16.07 З 1 30 км 8/8 1000 м
[Cu Sc]
+29.4 +19.0 54 +35 +39 очень
душно
1012.3 1009.1
11 16.07 ЮЗ 2 30 км 8/6 1000 м
[Cu Sc Ci sp]
+28.7 +19.2 56 +34 +41 очень
душно
1012.3 1009.1

 

Местоположение метеостанции Senj (Хорватия): широта 45.00 долгота 14.90 высота над уровнем моря 28 м.

В архиве по умолчанию представлена погода в Senj за последнюю неделю. Архивные данные за месяц целиком и за предыдущие месяцы, начиная с января 2011 года, Вы можете получить, выбрав интересующий диапазон дат из раскрывающегося списка и нажав кнопку "Ввод!".


*Определитесь, кто Вы:
робот инопланетянин человек

Внимание! Время в таблицах - всемирное. Для получения местного времени необходимо прибавить поправку, которая в Senj равна 1 ч.

Смотрите также архив погоды в соседних городах и на ближайших метеорологических станциях:

Погода в Zavizan (Хорватия) (21 км)
Погода в Rab (Хорватия) (30 км)
Погода в Rijeka-Omisalj (Хорватия) (35 км)
Погода в Ogulin (Хорватия) (40 км)
Погода в Rijeka-Kozala (Хорватия) (51 км)
Погода в Mali Losinj (Хорватия) (62 км)
Погода в Gospic (Хорватия) (62 км)
Погода в Crnomelj (Словения) (66 км)
Погода в Parg (Хорватия) (70 км)
Погода в Kocevje (Словения) (72 км)

Пояснения к столбцам:

Ветер - указаны скорость ветра в м/с - средняя за 10 мин, порывы в срок и между сроками (в фигурных скобках) и направление, откуда дует ветер: С - северный, СВ - северо-восточный, В - восточный, ЮВ - юго-восточный, Ю - южный, ЮЗ - юго-западный, З - западный, СЗ - северо-западный.
Видимость - горизонтальная дальность видимости в метрах или километрах. При видимости от 1 до 10 км при отсутствии осадков обычно наблюдается дымка, при ухудшении видимости до 1 км и менее - туман. В сухую погоду видимость может ухудшаться дымом, пылью или мглою.
Явления - указаны атмосферные явления, наблюдавшиеся в срок или в последний час перед сроком; фигурными скобками обозначены явления, наблюдавшиеся между сроками (за 1-3 часа до срока); квадратными скобками обозначены град или гололедные отложения с указанием их диаметра в мм.
Облачность - указаны через наклонную черту общая и нижняя облачность в баллах и высота нижней границы облаков в метрах; квадратными скобками обозначены формы облаков: Ci - перистые, Cs - перисто-слоистые, Cc - перисто-кучевые, Ac - высококучевые, As - высокослоистые, Sc - слоисто-кучевые, Ns - слоисто-дождевые, Cu - кучевые, Cb - кучево-дождевые. Подробнее классификацию облаков см. в Атласе облаков (PDF).
T - Температура воздуха - температура, измеренная на высоте 2 м над землей.
Td - Температура точки росы - температура, при понижении до которой содержащийся в воздухе водяной пар достигнет насыщения.
f - Относительная влажность воздуха - влажноcть воздуха, измеренная на высоте 2 м над землей.
Te - Эффективная температура - температура, которую ощущает одетый по сезону человек в тени. Характеристика душности погоды. При расчете учитывается влияние влажности воздуха и скорости ветра на теплоощущения человека.
Tes - Эффективная температура на солнце - температура, которую ощущает человек, с поправкой на солнечный нагрев. Характеристика знойности погоды. Зависит от высоты солнца над горизонтом, облачности и скорости ветра. Ночью, в пасмурную погоду, а также при ветре 12 м/с и более поправка равна нулю.
P - Атмосферное давление - приведенное к уровню моря атмосферное давление.
Po - Атмосферное давление - измеренное на уровне метеостанции атмосферное давление.
Tmin - Минимальная температура - минимум температуры воздуха на высоте 2 м над землей.
Tmax - Максимальная температура - максимум температуры воздуха на высоте 2 м над землей.
R - Количество осадков - Количество выпавших осадков за период времени, мм. При наведении курсора мыши на число - период времени, за который выпало указанное количество осадков.
R24 - Количество осадков - Количество выпавших осадков за 24 часа, мм.
S - Снежный покров - Высота снежного покрова, см. При наведении курсора мыши на число - состояние снежного покрова и степень покрытия местности в баллах.